This demonstration page uses our WeatherBlox Daily Observations layout. Learn more.

Left ArrowRight Arrow

39.92423, -83.80882

Hourly Observations for September 1, 2015

Temp ( °F °C ) Dew Point ( °F °C ) Humidity (%) Winds ( mph kmh ) Pressure ( in mb ) Visibility ( mi km ) Precip ( " mm )
12:56 am 00:56 Clear 67 19.4 67 19.4 100 100 Calm 30.11 1020 10 16.0934 0 0
1:56 am 01:56 Clear 67 19.4 67 19.4 100 100 SSW 3 6 30.11 1020 10 16.0934 0 0
2:56 am 02:56 Clear 65 18.3 65 18.3 100 100 ENE 3 6 30.11 1020 7 11.26538 0 0
3:56 am 03:56 Clear 65 18.3 65 18.3 100 100 SSW 5 7 30.1 1019 10 16.0934 0 0
4:56 am 04:56 Clear 65 18.3 65 18.3 100 100 WSW 3 6 30.11 1020 8 12.87472 0 0
5:56 am 05:56 Clear 64 17.7 64 17.7 100 100 Calm 30.11 1020 7 11.26538 0 0
6:56 am 06:56 Clear with Mist and Fog 64 17.7 64 17.7 100 100 Calm 30.14 1021 4 6.43736 0 0
7:19 am 07:19 Sunny with Mist and Fog 64 18 64 18 100 100 Calm 30.15 1021 1.75 2.816345 0 0
7:47 am 07:47 Sunny with Mist and Fog 64 18 64 18 100 100 Calm 30.18 1022 3 4.82802 0 0
7:56 am 07:56 Sunny with Mist and Fog 65 18.3 65 18.3 100 100 Calm 30.16 1021 5 8.0467 0 0
8:14 am 08:14 Sunny with Mist and Fog 66 19 66 19 100 100 SSW 3 6 30.18 1022 2.5 4.02335 0 0
8:24 am 08:24 Sunny with Mist and Fog 68 20 68 20 100 100 SSW 5 7 30.15 1021 4 6.43736 0 0
8:56 am 08:56 Sunny 71 21.6 71 21.6 100 100 SW 3 6 30.16 1021 7 11.26538 0 0
9:56 am 09:56 Sunny 77 25 72 22.2 85 85 SW 5 7 30.16 1021 10 16.0934 0 0
10:56 am 10:56 Sunny 80 26.6 72 22.2 77 77 Calm 30.15 1021 10 16.0934 0 0
11:56 am 11:56 Mostly Sunny 82 27.7 71 21.6 69 69 WNW 3 6 30.15 1021 10 16.0934 0 0
12:56 pm 12:56 Sunny 85 29.4 71 21.6 63 63 Calm 30.14 1021 10 16.0934 0 0
1:56 pm 13:56 Partly Cloudy 86 30 72 22.2 63 63 SSW 6 9 30.12 1020 10 16.0934 0 0
2:56 pm 14:56 Mostly Sunny 85 29.4 71 21.6 63 63 VRB 3 6 30.11 1020 10 16.0934 0 0
3:56 pm 15:56 Sunny 86 30 72 22.2 63 63 SW 7 11 30.1 1019 10 16.0934 0 0
4:56 pm 16:56 Sunny 85 29.4 71 21.6 63 63 SW 9 15 30.09 1019 10 16.0934 0 0
5:56 pm 17:56 Sunny 85 29.4 71 21.6 63 63 W 6 9 30.09 1019 10 16.0934 0 0
6:33 pm 18:33 Sunny with Nearby Thunderstorms 81 27 72 22 74 74 WSW 6 9 30.06 1018 10 16.0934 0 0
6:56 pm 18:56 Partly Cloudy with Thunderstorms 78 25.5 68 20 72 72 WNW 14 22 30.1 1019 10 16.0934 0 0
7:36 pm 19:36 Mostly Sunny 73 23 66 19 78 78 W 8 13 30.09 1019 10 16.0934 0 0.0254
7:56 pm 19:56 Sunny 74 23.3 70 21.1 88 88 W 5 7 30.08 1019 10 16.0934 0 0
8:56 pm 20:56 Clear 70 21.1 68 20 93 93 Calm 30.11 1020 10 16.0934 0 0.0254
9:56 pm 21:56 Clear 69 20.5 69 20.5 100 100 Calm 30.11 1020 10 16.0934 0 0
10:56 pm 22:56 Clear 68 20 67 19.4 96 96 Calm 30.11 1020 10 16.0934 0 0
11:56 pm 23:56 Clear 67 19.4 66 18.8 96 96 Calm 30.11 1020 10 16.0934 0 0

Powered by AerisWeather